Regional Weather Roundup
Issued by NWS Charleston, SC

Current Version | Previous Version | Graphics & Text | Print | Product List | Glossary On
Versions: 1 2 3 4 5 6 7 8 9 10 11 12 13 14 15 16 17 18 19 20 21 22 23 24 25 26 27 28 29 30 31 32 33 34 35 36 37 38 39 40 41 42 43 44 45 46 47 48 49 50
000
ASUS42 KCHS 290328
RWRCHS

REGIONAL WEATHER ROUNDUP
NATIONAL WEATHER SERVICE CHARLESTON SC
1100 PM EDT THU APR 28 2016

NOTE: "FAIR" INDICATES FEW OR NO CLOUDS BELOW 12,000 FEET WITH NO
SIGNIFICANT WEATHER AND/OR OBSTRUCTIONS TO VISIBILITY.

NOT ALL STATIONS ARE QUALITY CONTROLLED. USE DATA WITH CAUTION...
ESPECIALLY DEWPOINT OBSERVATIONS.

SCZ027-030-031-034>040-042>050-290400-
...SOUTHEAST SOUTH CAROLINA...

CITY           SKY/WX    TMP DP  RH WIND       PRES   REMARKS
N CHARLESTON   CLEAR     71  68  90 SW9       29.93S
WATERFRONT PRK   N/A     73  70  90 VRB3      29.92R
MOUNT PLEASANT FAIR      72  70  94 CALM      29.93S
JOHNS ISLAND   FAIR      73  70  88 SW6       29.94S
PINOPOLIS        N/A     73  70  88 SW7       29.83S
MONCKS CORNER  FAIR      68  64  88 SW7       29.92S
SUMMERVILLE    FAIR      70  70 100 SW3       29.93F
BEAUFORT MCAS  PTCLDY    73  69  87 SW3       29.95S
BEAUFORT ARPT  FAIR      73  68  83 SW6       29.94S
HILTON HEAD IS PTCLDY    73  70  88 SW7       29.96S
WALTERBORO     CLEAR     75  66  73 SW8       29.94F
ALLENDALE      FAIR      72  68  88 CALM      29.94S

...SOUTHERN MIDLANDS AND PEE DEE...

CITY           SKY/WX    TMP DP  RH WIND       PRES   REMARKS
GEORGETOWN     FAIR      68  64  88 S10       29.92F
KINGSTREE      FAIR      68  64  88 CALM      29.90F
ORANGEBURG     CLEAR     74  68  81 SW10      29.92F
BARNWELL       FAIR      75  73  94 SW6       29.94S
AIKEN          FAIR      70  68  94 SW8       29.96S
MANNING        NOT AVBL
COLUMBIA       CLEAR     76  67  73 SW7       29.90R
SUMTER         NOT AVBL
FLORENCE       CLEAR     73  66  78 SW10      29.89S
MYRTLE BEACH   CLEAR     72  63  73 SW12      29.94
N MYRTLE BEACH CLEAR     71  66  84 SW13      29.91F

$$

GAZ063-065-086>088-099>101-113>116-118-119-134>141-150-290400-
...SOUTHEAST GEORGIA...

CITY           SKY/WX    TMP DP  RH WIND       PRES   REMARKS
SAVANNAH ARPT  PTCLDY    74  67  78 SW6       29.96S
HUNTER AAF     NOT AVBL
FORT STEWART   NOT AVBL
STATESBORO     PTCLDY    74  73  96 CALM      29.96S
SYLVANIA       CLOUDY    71  70  97 CALM      29.96S
CLAXTON        FAIR      68  68 100 CALM      29.96F FOG

...CSRA...CENTRAL AND FAR SOUTHEAST GEORGIA...

CITY           SKY/WX    TMP DP  RH WIND       PRES   REMARKS
THOMSON        CLEAR     75  70  86 SW5       29.99R
AUGUSTA-BUSH   CLEAR     73  70  90 SW8       29.92S
AUGUSTA-DANIEL CLEAR     77  67  71 VRB6      29.94S
SWAINSBORO     MOCLDY    73  68  83 W6        29.98R
VIDALIA        CLEAR     72  68  88 CALM      29.98R
EASTMAN        FAIR     N/A N/A N/A CALM      30.00S HAZE
HAZLEHURST     FAIR      72  71  99 CALM      29.97S
ALMA           PTCLDY    70  67  90 CALM      29.97S
WAYCROSS       PTCLDY    70  70  98 CALM      29.98S
JESUP          FAIR      72  70  94 CALM      29.98S
BAXLEY         FAIR      70  70 100 CALM      29.97S FOG
BRUNSWICK      CLEAR     77  70  78 SW6       29.99S
SAINT SIMONS   CLEAR     73  69  87 SW6       29.98S

$$

SCZ027-028-034-036>038-045-046-048>050-GAZ119-141-290400-
...LAKE AND SUPPLEMENTAL COASTAL OBSERVATIONS...

STATION/POSITION TIME  TEMP    WIND        PRES    WAVE   SWELL
                       AIR SEA DIR/SP/G            HT/PER HT/PER/DIR
                 (UTC) (F)     (DEG/KT/KT) (MB)    (FT/S) (FT/S/D)
WINYAH BAY       0245   72     210/  8     1012.0S
LAKE MURRAY      0200   77     230/  9/ 12 1011.9R
ACE BASIN NERRS  0245   74     240/  1     1014.0S
FORT PULASKI     0300   73 71              1014.8S
SAPELO ISLAND    0300   73     190/  6     1015.0S

$$

ANZ835-935-AMZ111-154-330-350-352-354-370-450-454-472-290400-
...C-MAN AND BUOY OBSERVATIONS...

STATION/POSITION TIME  TEMP    WIND        PRES    WAVE   SWELL
                       AIR SEA DIR/SP/G            HT/PER HT/PER/DIR
                 (UTC) (F)     (DEG/KT/KT) (MB)    (FT/S) (FT/S/D)
BUOY 41004       NOT AVBL
BUOY 41008       NOT AVBL
FOLLY BEACH CMAN 0300   72     220/ 11/ 14 1013.9S
CAPERS NEARSHORE 0208   71 70  220/ 14/ 17 1013.4R
FRIPP NEARSHORE  0208   73 71  220/ 14/ 17 1013.4R


STATION/POSITION TIME  TEMP    WIND        PRES    WAVE   SWELL
                       AIR SEA DIR/SP/G            HT/PER HT/PER/DIR
                 (UTC) (F)     (DEG/KT/KT) (MB)    (FT/S) (FT/S/D)
5E ST. MARYS GA  NOT AVBL
FRYING PAN BUOY  NOT AVBL
BUOY 41025       NOT AVBL
CAPE LOOKOUT NC  0300   69     210/  8/ 10 1012.8F
BUOY 41002       NOT AVBL
BUOY 41010       NOT AVBL
ST AUGUSTINE FL  0300   76 70  210/  4/  6 1016.6F


$$




USA.gov is the U.S. government's official web portal to all federal, state and local government web resources and services.